Location: Newark
(44.6028°N, 124.0883°W)
Time: 13:07:20
(UTC+00:00)

N. Korean satellite - Visible Passes

Search period start: 22 October 2020 00:00
Search period end: 01 November 2020 00:00
Orbit: 453 x 505 km, 97.2° (Epoch: 22 October)

Date Brightness Start Highest point End Pass type
(mag) Time Alt. Az. Time Alt. Az. Time Alt. Az.
22 Oct 6.4 13:55:25 10° NNE 13:58:53 87° W 14:02:17 10° SSW visible
23 Oct 10.2 02:07:09 10° WSW 02:08:56 13° W 02:10:43 10° WNW visible
23 Oct 8.0 13:29:28 10° NNE 13:32:43 40° E 13:35:57 10° S visible
24 Oct 9.4 13:03:57 10° NE 13:06:29 19° E 13:09:00 10° SE visible
25 Oct 6.5 14:10:29 10° N 14:13:49 53° WNW 14:17:09 10° SSW visible
26 Oct 6.9 13:44:19 10° NNE 13:47:44 65° E 13:51:07 10° S visible
27 Oct 9.9 01:55:17 10° SW 01:57:43 17° W 02:00:10 10° NW visible
27 Oct 8.6 13:18:30 10° NE 13:21:31 29° E 13:24:33 10° SSE visible
28 Oct 9.9 12:53:19 10° ENE 12:55:13 14° E 12:57:09 10° SE visible
29 Oct 6.3 13:59:14 10° N 14:02:40 77° WNW 14:06:04 10° SSW visible
30 Oct 10.3 02:11:35 10° WSW 02:12:48 11° W 02:14:00 10° WNW visible
30 Oct 7.6 13:33:11 10° NNE 13:36:30 45° E 13:39:48 10° S visible
31 Oct 9.5 01:43:36 10° SSW 01:46:28 23° W 01:49:19 10° NW visible
31 Oct 9.2 13:07:33 10° NE 13:10:15 21° E 13:12:56 10° SSE visible
